STARLINK-2426, 47836

Orbit data source: Space-Track

STARLINK-2426, 47836 is a payload satellite owned by SpaceX/Seattle (US) in LEO that was launched on Thu, 11 Mar 2021 UTC via an FALCON 9 launch vehicle from the Air Force Eastern Test Range (AFETR). Payload-class satellites include a variety of spacecraft equipped with specific instruments for various scientific and technological missions. These include communications satellites like Starlink; space stations such as the ISS; scientific satellites like the Hubble; Earth observation satellites from companies like Planet Labs, Umbra, and HawkEye 360; GPS; miniature CubeSats for education and research; and military/defense satellites.

Loading next visibility...
Identifier
47836, 2021-018BB
Orbit
LEO
Country
Flag of USUS
Related business
Manufacturer
SpaceX/Seattle
Mission
Operational Commercial Communications
Bus & Motor
STARLINK, Unknown motor
Mass
260 kg wet, ~248 kg dry
Launch date (UTC)
2021-03-11 (5 years ago)
Launch vehicle
FALCON 9
Launch site
Air Force Eastern Test Range (AFETR)
Object type
Payload
Rocket body
Debris
Shape & HBR
Box + 1 Pan, 10.1 m
Radar Cross Section
13.562 m², Large (>1 m²)

Expand to show TLE details & history
Last TLE update: 3 days ago

TLE from 3 days ago
0 STARLINK-2426
1 47836U 21018BB  26170.61891298  .00001801  00000-0  69752-4 0  9993
2 47836  53.1589 130.8121 0001065  69.1666 290.9449 15.31708806292316
Epoch: 2026-06-19T14:51Z
TLE epoch observation values (Epoch: 2026-06-19T14:51:14.081Z)
Latitude
-0.00005°
Longitude
0.15809°
Altitude
471.353 km
Speed
7.632 km/s
True Right ascension
08h 43m 14s
True Declination
0° 00' 00"
Sunlit
Object was in daylight at epoch
Visualization orbit readout
Latitude
Unknown
Longitude
Unknown
Altitude
Unknown
Speed
Unknown
Apparent Right ascension
Unknown
Apparent Declination
Unknown
Sunlit
N/A
Visualization observer readout
Local Sidereal Time
21:42:45
Azimuth
Unknown
Elevation
Unknown
Doppler factor
Unknown
Orbital elements
Apogee altitude
471.7 km
Perigee altitude
470.241 km
Semi-major axis
6,849.108 km
Eccentricity
0.00011
Inclination
53.1589°
RAAN
130.8121°
Arg. of periapsis
69.1666°
True anomaly
290.9335°
Mean anomaly
290.9449°
Eccentric anomaly
290.9392°
Mean motion
3.82906 °/min
Orbital period
94.02 mins
BSTAR
0.000069752
Loading maneuver chart data...
Computing Atmospheric mass density...
Loading historical data...
Loading historical data...
Loading historical data...
Loading historical data...
Loading historical data...
Loading historical data...
Loading historical data...

Documentation

Showing up to 5 results
|